sat.trackr.live / text

‹ back to catalog

STARLINK-30904

NORAD 58364 · 2023-177P

PAYLOAD ACTIVE UNKNOWN

§ Identity

Operator
Country
US
Launch date
2023-11-18
Launch site
AFETR
Launch vehicle
Mass (kg)
RCS (m²)

Purposes: comms

External: N2YO · Heavens-Above · Gunter

§ Orbital elements

Epoch: 2026-05-24T18:25:15.230496Z

Period
95.48 min
Inclination
43.0004°
Eccentricity
0.0008426
Mean motion
15.08200247 rev/d
Perigee alt
535.9 km
Apogee alt
547.5 km
Semi-major
6,919.8 km
B*
1.0655e-3
RAAN
293.6298°
Arg perigee
296.3522°
Mean anomaly
63.6457°
Rev number
13,971

§ Raw data

STARLINK-309041 58364U 23177P   26144.76753739  .00016599  00000+0  10655-2 0  99982 58364  43.0004 293.6298 0008426 296.3522  63.6457 15.08200247139718

JSON: /api/v1/satellites/58364 · /tle

For live sub-satellite position, see the globe view (requires WebGL).

§ Visibility from observer

Set your observer location to see the next 7 days of passes ≥ 10°. The values pass through the URL so the page stays shareable.

No JS? Fill the form by hand. The geolocation button needs JavaScript.